Location: Ferchesar
(52.6477°N, 12.4298°E)
Time: 10:19:03
(UTC+01:00)

S-56A Canister/Altair - Pass Details

Date: 15 December 2021
Orbit: 633 x 2499 km, 38.9° (Epoch: 19 January)

Event Time Altitude Azimuth Distance (km) Brightness Sun altitude
Rises 00:17:29 0° 264° (W) 5,690 - -60.5°
Reaches altitude 10° 00:22:05 10° 256° (WSW) 4,416 - -60.4°
Maximum altitude 00:31:31 31° 201° (SSW) 2,437 - -60.2°
Drops below altitude 10° 00:38:20 10° 142° (SE) 3,136 - -59.9°
Sets 00:41:01 0° 132° (SE) 3,862 - -59.8°
